Location: Newark
(44.3681°N, 100.3364°W)
Time: 14:21:45
(UTC+00:00)

Vanguard 1 - Pass Details

Date: 23 February 2020
Orbit: 649 x 3833 km, 34.2° (Epoch: 07 April)

Event Time Altitude Azimuth Distance (km) Brightness Sun altitude
Rises 10:28:58 0° 175° (S) 7,685 14.5 -32.6°
Reaches altitude 10° 10:39:33 10° 152° (SSE) 6,922 14.4 -30.8°
Maximum altitude 10:47:40 13° 131° (SE) 6,621 14.6 -29.4°
Drops below altitude 10° 10:55:26 10° 110° (ESE) 6,651 14.9 -28.1°
Sets 11:04:42 0° 88° (E) 7,150 15.7 -26.5°
